Content
SEND FEEDBACK

Daily
Averages
Monthly
Summary
United Kingdom

LONDON, ENGLAND


Home > Europe > United Kingdom > England
Elevation: 61 meters     Latitude: 51 09N     Longitude: 000 11W

WEATHER
 
SELECT A DAY
Number of Records: 292,281;   Date Range: 7/1/96 - 7/9/14
 
SHARE

PRINT THIS DATA

[ ← Previous Day ]
WEATHER ALMANAC - 25 OCTOBER, 2013
[ Next Day → ]
[ °F ]   °C
Weather ElementAverageHighLow
Temperature15.7 °C17 °C (10:50 am)13 °C (12:50 am)
Dewpoint13.6 °C15 °C (8:20 am)12 °C (12:50 am)
Humidity87.4 %100 % (6:50 am)77 % (5:20 pm)
Barometer1005.4 hPa1009.1 hPa (12:50 am)1003 hPa (5:20 am)
Wind Speed17.5 km/h24.1 km/h (1:50 pm)
Wind Gust38.9 km/h (2:50 pm)
Weather ElementAverage
Visibility9.2 km
Wind DirectionS (183.4 °)

Weather ElementTotal
Precipitation---
Heating Degree Days3.3 (Base 18.3)
Growing Degree Days5 (Base 10)
Averaged from 47 records on 25 October, 2013
WEATHER CONDITIONS BREAKOUT
WIND DIRECTION BREAKOUT
WEATHER BY HOUR - 25 OCTOBER, 2013
[ °F ]   °C
Local TimeTemperatureDewpointHumidityBarometerVisibilityWind DirectionWind SpeedGust SpeedPrecipitationEventsConditions
12:50 AM13 °C12 °C94 %1009.1 hPa10 kmEast (90°)14.8 km/hPartly Cloudy
1:20 AM14 °C12 °C88 %1008.1 hPa10 kmEast (100°)13 km/hMostly Cloudy
1:50 AM14 °C12 °C88 %1008.1 hPa10 kmEast (90°)13 km/hMostly Cloudy
2:20 AM14 °C12 °C88 %1007.1 hPa10 kmEast (100°)13 km/hMostly Cloudy
2:50 AM14 °C13 °C94 %1006.1 hPa10 kmESE (110°)13 km/hRainLight Rain
3:20 AM14 °C13 °C94 %1005.1 hPa10 kmESE (120°)14.8 km/hRainLight Rain
3:50 AM14 °C13 °C94 %1005.1 hPa10 kmSE (130°)14.8 km/hRainLight Rain
4:20 AM14 °C13 °C94 %1004.1 hPa6 kmSE (130°)16.7 km/hRainLight Rain
4:50 AM14 °C13 °C94 %1004.1 hPa6 kmESE (120°)18.5 km/hRainRain
5:20 AM14 °C13 °C94 %1003 hPa6 kmSE (130°)16.7 km/hRainRain
5:50 AM14 °C13 °C94 %1003 hPa5 kmSE (140°)16.7 km/hRainRain
6:20 AM14 °C13 °C94 %1003 hPa6 kmSSE (150°)16.7 km/hRainLight Rain
6:50 AM14 °C14 °C100 %1003 hPa6.9 kmSouth (190°)14.8 km/hRainLight Rain
7:20 AM15 °C14 °C94 %1003 hPa6.9 kmSouth (180°)13 km/hDrizzle
7:50 AM15 °C14 °C94 %1003 hPa9 kmSouth (190°)14.8 km/hMostly Cloudy
8:20 AM16 °C15 °C94 %1003 hPa10 kmSSW (200°)13 km/hMostly Cloudy
8:50 AM16 °C15 °C94 %1004.1 hPa10 kmSouth (190°)14.8 km/hMostly Cloudy
9:20 AM16 °C15 °C94 %1004.1 hPa10 kmSSW (200°)16.7 km/hMostly Cloudy
9:50 AM16 °C15 °C94 %1005.1 hPa10 kmSSW (200°)14.8 km/hMostly Cloudy
10:20 AM16 °C15 °C94 %1005.1 hPa10 kmSSW (210°)16.7 km/hMostly Cloudy
10:50 AM17 °C15 °C88 %1005.1 hPa10 kmSW (220°)18.5 km/hMostly Cloudy
11:20 AM17 °C15 °C88 %1005.1 hPa10 kmSSW (210°)18.5 km/hMostly Cloudy
11:50 AM17 °C15 °C88 %1006.1 hPa10 kmSSW (210°)18.5 km/hScattered Clouds
12:20 PM17 °C14 °C82 %1006.1 hPa10 kmSSW (210°)18.5 km/hScattered Clouds
12:50 PM17 °C14 °C82 %1006.1 hPa10 kmSSW (210°)18.5 km/hScattered Clouds
1:20 PM17 °C14 °C82 %1006.1 hPa10 kmSW (220°)20.4 km/hMostly Cloudy
1:50 PM17 °C14 °C82 %1006.1 hPa10 kmSSW (210°)24.1 km/hMostly Cloudy
2:20 PM17 °C14 °C82 %1006.1 hPa6 kmSSW (210°)18.5 km/hMostly Cloudy
2:50 PM17 °C14 °C82 %1005.1 hPa6 kmSSW (210°)18.5 km/h38.9 km/hScattered Clouds
3:20 PM17 °C14 °C82 %1005.1 hPa10 kmSSW (210°)20.4 km/hScattered Clouds
3:50 PM17 °C14 °C82 %1006.1 hPa10 kmSSW (210°)18.5 km/hPartly Cloudy
4:20 PM17 °C14 °C82 %1006.1 hPa10 kmSSW (210°)18.5 km/hPartly Cloudy
4:50 PM17 °C14 °C82 %1005.1 hPa10 kmSSW (210°)20.4 km/hPartly Cloudy
5:20 PM17 °C13 °C77 %1005.1 hPa10 kmSSW (200°)16.7 km/hPartly Cloudy
5:50 PM16 °C14 °C88 %1006.1 hPa10 kmSSW (200°)14.8 km/hPartly Cloudy
6:20 PM16 °C14 °C88 %1006.1 hPa10 kmSSW (200°)16.7 km/hScattered Clouds
6:50 PM16 °C13 °C82 %1006.1 hPa10 kmSSW (200°)18.5 km/hPartly Cloudy
7:20 PM16 °C13 °C82 %1006.1 hPa10 kmSSW (210°)20.4 km/hPartly Cloudy
7:50 PM16 °C13 °C82 %1006.1 hPaSSW (210°)20.4 km/hClear
8:20 PM16 °C13 °C82 %1006.1 hPaSSW (210°)20.4 km/hClear
8:50 PM16 °C13 °C82 %1006.1 hPaSSW (210°)22.2 km/hClear
9:20 PM16 °C13 °C82 %1006.1 hPa10 kmSSW (210°)24.1 km/hPartly Cloudy
9:50 PM16 °C13 °C82 %1006.1 hPa10 kmSSW (210°)24.1 km/hPartly Cloudy
10:20 PM16 °C13 °C82 %1006.1 hPa10 kmSSW (210°)20.4 km/hScattered Clouds
10:50 PM16 °C13 °C82 %1006.1 hPa10 kmSSW (210°)18.5 km/hMostly Cloudy
11:20 PM16 °C13 °C82 %1007.1 hPa10 kmSSW (210°)18.5 km/hMostly Cloudy
11:50 PM16 °C13 °C82 %1007.1 hPa10 kmSSW (210°)18.5 km/hScattered Clouds
Hourly data recorded from EGKK, located 0 kilometers away from London, England







STORIES FROM OUR PARTNERS